Theta_e
311 311 311 311 311 310 310 309 307 305 307 309 310 312 311 311 311 312 311 312 310 308 307 310 310 307 306 308 310 309 312 312 311 313 312 314 315 316 316 316 316 318 319 323 351
312 311 311 312 312 311 311 311 311 310 310 311 312 311 312 312 311 311 311 312 311 307 310 310 310 308 309 308 309 312 311 311 311 312 312 312 312 312 313 314 315 316 318 335 353
313 312 312 311 311 311 311 313 313 313 313 313 312 311 311 311 312 312 317 316 310 308 310 308 308 310 311 308 309 310 311 309 311 311 312 311 312 312 312 314 314 317 318 318 338
313 313 313 312 311 312 313 312 313 313 311 311 310 310 311 310 315 312 313 311 307 310 310 306 309 311 313 310 308 309 309 309 309 310 312 312 312 313 313 315 316 316 317 316 318
313 313 313 313 311 310 312 312 312 311 310 309 309 309 310 313 314 312 313 308 312 311 310 309 308 311 313 313 309 309 311 310 310 310 312 312 313 313 313 315 316 315 316 317 318
313 313 313 312 312 312 312 311 310 309 309 309 308 309 310 313 311 312 315 313 314 314 310 308 309 311 313 314 314 313 313 314 314 313 311 312 314 312 316 316 316 315 317 318 319
313 312 312 310 311 311 312 310 309 309 309 309 308 310 311 314 313 319 318 317 314 313 312 307 307 311 313 313 313 313 315 315 315 315 315 313 314 314 317 317 316 317 317 321 325
312 312 310 310 310 311 311 310 308 310 310 309 309 311 313 311 312 312 318 316 314 312 309 310 308 310 311 312 314 315 315 316 316 314 312 314 317 317 317 315 317 318 318 319 321
312 311 310 310 311 312 310 309 309 311 311 309 311 309 315 311 314 312 315 315 313 313 311 309 310 310 313 315 316 314 316 316 316 315 314 314 317 319 318 316 318 319 319 319 320
312 310 309 310 310 310 309 308 311 311 312 311 310 311 313 315 315 316 316 313 313 312 312 312 315 316 314 316 316 316 316 316 316 317 316 317 318 318 318 316 318 319 319 319 318
310 310 309 309 309 310 308 309 314 315 311 316 316 314 315 316 317 317 314 316 316 316 317 315 316 317 316 316 315 315 316 316 317 316 316 319 318 319 318 317 317 317 318 318 318
310 310 309 308 308 309 308 310 312 313 317 314 315 315 314 315 317 317 315 317 318 318 315 314 316 315 315 314 314 315 316 316 317 317 317 318 318 318 318 318 319 317 317 318 317
310 310 309 308 308 308 308 309 311 311 317 317 316 317 317 316 318 318 316 315 316 317 316 317 315 316 314 315 315 316 317 317 317 317 318 318 319 319 318 318 321 320 320 320 319
310 309 309 308 307 307 308 309 310 311 321 318 319 319 318 318 318 319 315 315 315 316 315 316 316 316 316 316 315 317 317 317 318 319 320 317 319 320 318 320 323 323 323 322 322
310 309 309 308 307 308 307 309 310 312 326 321 321 318 318 319 319 317 314 315 316 315 316 317 317 318 318 317 316 318 318 318 319 320 319 318 319 319 320 323 324 323 321 320 320
309 309 309 307 306 307 307 307 310 322 326 325 321 320 320 320 318 316 315 314 315 316 316 316 316 316 317 317 317 318 317 317 317 318 320 319 319 319 320 323 324 320 318 317 316
308 309 308 307 307 307 309 311 321 326 322 326 322 321 320 320 319 318 318 315 316 317 317 317 317 316 316 317 320 320 321 321 321 321 320 322 321 319 323 321 323 320 317 315 315
308 308 307 307 307 307 308 318 325 322 323 325 321 321 322 320 320 317 318 319 315 317 317 319 318 317 318 318 321 322 321 321 323 322 320 325 325 325 320 318 318 316 315 314 313
308 308 306 307 307 307 310 324 319 322 323 324 322 321 321 320 320 320 319 319 318 316 319 319 318 321 321 322 322 323 323 320 325 324 326 323 324 319 318 317 316 315 314 313 312
307 306 306 307 306 307 314 320 319 322 325 322 322 323 322 321 320 320 319 318 318 315 318 319 322 321 321 321 321 322 320 325 323 327 327 324 324 323 321 319 316 316 315 313 312
306 307 308 308 308 312 318 319 319 320 320 325 324 322 323 323 324 325 321 322 320 317 316 318 320 321 321 322 322 323 324 323 324 324 326 324 322 319 322 319 317 315 313 312 311
307 309 309 308 315 316 318 318 317 317 318 319 322 323 323 321 323 326 325 324 319 319 318 319 322 323 322 318 318 321 323 324 327 328 325 325 324 315 316 316 315 314 311 310 310
309 307 307 308 320 321 318 319 318 319 320 322 321 319 319 323 324 321 323 318 319 320 322 322 323 326 325 321 320 322 322 322 324 326 328 328 324 315 314 314 314 312 310 310 310
308 309 311 312 316 316 317 318 319 319 321 320 321 321 321 322 320 322 322 318 318 321 321 323 323 326 328 322 322 323 322 322 324 329 325 326 324 318 316 316 315 312 310 309 310
307 309 312 315 315 314 315 316 318 319 318 319 321 321 321 323 320 320 320 317 317 317 317 320 324 321 319 319 318 318 320 321 323 323 325 321 323 322 319 317 315 313 310 309 310
308 310 312 311 313 314 315 317 317 319 317 320 321 320 318 319 318 320 318 318 319 318 320 318 321 318 320 317 318 319 319 319 319 320 321 320 321 320 316 316 313 312 310 310 310
307 308 311 310 312 313 315 315 315 316 315 315 318 317 317 316 315 315 314 314 315 318 320 321 321 321 319 318 319 320 319 319 318 318 319 320 320 316 315 314 314 311 309 309 308
Wind_Speed
17 17 16 16 16 16 16 16 16 16 16 16 17 17 19 18 17 10 11 11 7 16 9 14 10 8 6 3 2 3 4 7 7 9 6 3 5 3 2 8 10 10 10 10 6
18 17 17 17 17 16 17 17 17 17 17 16 16 17 17 18 17 16 21 12 12 15 15 15 10 10 4 4 3 5 5 9 4 7 6 4 4 7 3 7 8 12 12 5 9
19 19 19 18 18 17 17 16 16 16 16 17 16 15 14 14 7 6 6 7 17 25 11 9 13 5 4 4 5 5 5 4 4 9 8 10 9 3 6 9 13 13 10 7 7
21 21 21 22 21 19 18 17 16 16 16 17 17 13 11 2 6 2 6 8 19 22 14 11 9 7 6 8 6 4 7 6 2 6 6 7 4 6 10 12 16 12 15 15 13
22 22 22 22 21 21 20 19 19 20 18 20 16 9 4 4 11 10 6 13 18 19 16 9 14 6 8 7 7 6 5 7 11 9 13 7 16 10 12 16 16 14 15 16 14
23 24 24 24 23 22 21 20 22 23 24 21 14 5 4 8 6 6 5 20 20 15 13 11 10 6 4 5 9 7 10 10 7 12 10 9 6 9 13 15 14 8 16 12 12
23 23 24 24 23 23 22 22 25 26 24 17 10 8 6 14 6 7 11 14 22 17 8 10 5 6 6 6 5 3 4 5 9 5 6 12 4 9 18 5 11 11 14 9 12
23 24 24 25 25 25 24 26 27 16 9 6 8 7 8 4 10 20 10 9 12 12 4 8 8 2 3 1 2 2 1 5 4 3 1 7 5 8 5 6 12 14 10 9 8
23 24 25 27 27 27 28 28 15 6 3 12 8 4 10 6 6 13 20 10 12 10 8 7 11 4 4 2 2 1 5 5 5 1 3 5 8 10 6 5 10 12 11 9 9
24 25 26 27 28 27 28 28 1 4 8 6 2 3 8 3 4 8 18 17 7 11 5 5 4 5 4 6 7 5 3 3 5 2 5 12 13 13 7 5 11 14 12 10 9
21 22 25 27 28 26 28 2 3 3 7 9 7 5 5 6 3 6 15 11 7 7 7 7 7 11 11 9 5 4 5 9 10 7 5 9 9 11 9 5 8 12 11 7 9
22 25 26 28 28 28 1 3 2 2 10 20 18 13 13 3 4 7 20 10 8 10 6 5 11 10 8 8 7 6 6 11 10 5 8 6 11 6 4 4 9 5 2 6 4
24 26 27 30 31 5 5 11 5 6 5 6 8 7 7 14 8 10 18 9 11 11 11 10 1 11 12 9 8 9 9 9 11 1 7 5 5 3 1 4 8 9 7 4 3
27 26 26 27 9 9 10 3 12 6 5 4 6 5 8 8 6 9 21 12 5 15 8 6 9 9 7 10 11 9 12 15 13 5 6 2 6 3 1 3 9 10 10 7 13
26 26 24 17 18 6 2 5 11 2 5 4 4 9 9 12 10 8 16 9 12 9 8 7 6 12 11 15 13 9 7 10 12 10 4 6 5 2 2 3 8 10 12 12 13
28 28 25 16 12 22 20 19 3 3 8 4 7 8 9 7 6 7 12 5 3 7 3 13 2 6 6 6 13 4 4 4 4 4 6 7 7 6 4 5 9 9 10 10 13
31 31 31 22 7 5 5 5 4 6 3 7 6 9 14 12 9 9 15 16 9 8 11 9 13 12 7 7 5 7 6 4 5 5 7 6 5 6 5 2 13 12 10 10 11
35 41 35 29 20 26 5 4 11 8 8 4 4 9 12 10 13 10 15 14 11 5 4 9 6 13 9 11 7 8 6 4 6 6 5 5 6 3 3 7 12 11 11 10 10
35 23 17 18 17 20 6 11 10 9 5 4 3 5 9 10 7 15 14 17 15 16 8 6 4 2 4 3 6 5 5 2 3 2 3 3 3 4 7 10 12 11 9 9 8
21 12 11 9 16 18 8 17 10 6 0 1 8 6 10 10 12 12 14 7 9 14 13 6 2 2 1 2 6 2 9 3 3 5 8 7 8 6 12 12 12 11 9 7 6
6 6 7 1 15 5 11 11 17 13 7 3 4 4 4 5 8 4 3 2 1 7 14 9 5 3 1 6 9 4 4 2 2 2 7 10 6 2 12 14 13 9 6 4 5
4 4 3 18 4 4 11 9 6 11 8 10 6 6 6 5 4 8 13 5 7 5 10 4 5 7 6 2 2 2 6 10 7 9 1 2 5 3 3 11 10 8 4 3 3
3 5 5 8 4 7 9 12 18 16 13 4 9 5 3 5 5 3 3 4 5 3 6 6 1 6 3 3 3 5 5 5 3 2 9 7 3 4 7 8 7 5 2 1 2
3 4 3 4 4 4 5 9 17 3 3 2 2 2 3 4 5 4 5 2 3 2 6 7 2 5 7 2 2 4 9 10 10 6 9 8 8 7 9 11 9 5 2 3 4
2 4 4 4 2 8 5 6 8 7 1 2 3 2 1 3 3 1 2 2 4 5 3 3 6 5 3 5 2 2 6 8 11 12 9 10 12 11 14 13 12 6 3 3 3
2 3 2 6 8 4 4 3 5 7 3 3 4 9 4 5 7 10 7 3 2 4 2 1 4 4 3 4 6 8 10 12 13 14 13 15 15 10 2 8 9 4 2 2 6
4 5 4 4 6 6 2 3 7 5 3 5 8 5 2 8 7 7 6 6 4 3 2 1 5 4 9 1 4 10 15 16 13 11 14 14 15 8 7 9 5 2 1 3 9
Wind_Direction
357 355 353 350 346 341 339 336 332 328 326 325 326 322 324 318 309 283 246 240 215 209 159 133 137 132 119 110 118 159 155 215 231 191 239 204 222 175 343 288 287 284 298 313 157
349 346 343 339 335 332 330 328 326 323 321 319 317 319 321 323 309 263 276 261 230 175 166 157 146 146 129 142 161 185 200 218 219 213 258 267 280 310 287 296 280 283 270 251 182
341 338 335 334 329 325 322 320 318 316 314 316 315 313 321 329 295 246 342 286 177 163 175 150 144 136 144 168 185 176 231 207 236 228 256 285 296 266 260 270 265 263 276 303 250
336 334 331 332 330 325 321 317 315 312 307 310 310 308 316 352 282 207 6 148 162 158 146 134 154 161 163 184 188 206 235 216 235 226 223 242 250 257 241 247 257 262 273 286 272
331 330 327 325 325 326 323 318 314 311 304 306 300 298 297 218 248 266 303 161 157 158 159 153 169 168 196 192 165 228 239 212 237 241 230 251 252 263 258 251 260 265 275 266 260
328 328 327 326 324 323 322 321 317 312 304 298 286 249 229 243 237 250 204 162 161 157 157 162 194 201 172 193 201 201 233 256 266 243 229 219 257 186 253 250 263 259 272 277 231
326 325 324 326 322 324 323 320 317 314 303 283 259 210 236 247 185 118 179 184 174 169 165 186 177 209 162 171 235 227 265 282 226 214 229 216 233 229 251 304 268 260 259 264 197
325 324 325 328 326 325 324 324 325 323 334 254 191 197 254 265 218 239 195 180 186 179 134 185 178 224 244 316 166 255 245 269 155 199 106 193 286 309 318 235 257 266 259 245 259
327 326 327 330 328 324 322 322 325 2 55 134 147 201 266 294 223 221 190 177 171 187 192 103 164 197 179 202 203 77 236 238 289 342 127 229 305 289 314 308 271 261 253 255 252
328 330 330 328 325 322 321 319 1 82 108 137 99 220 245 243 184 163 178 155 155 148 150 179 164 183 169 189 217 195 217 223 244 105 308 290 274 279 303 273 267 262 253 245 253
325 327 328 324 324 323 321 18 184 188 209 209 184 248 281 304 187 161 171 170 135 170 183 190 185 203 194 195 216 225 250 268 265 278 296 294 278 284 326 311 298 258 252 266 247
324 327 327 325 324 323 322 232 238 341 290 229 236 242 254 302 305 149 156 167 179 186 164 169 220 202 200 196 198 207 254 266 279 269 208 304 300 315 359 11 343 279 219 256 238
324 325 326 327 328 309 282 261 233 317 262 274 199 209 210 179 217 199 179 161 181 191 193 212 130 184 183 194 207 228 239 250 249 252 241 273 268 252 137 360 354 22 25 11 43
324 323 324 328 320 328 281 190 335 209 282 244 227 233 163 170 203 183 185 175 184 206 172 225 237 223 205 218 209 248 227 240 248 237 259 256 258 234 122 2 32 36 52 68 107
319 320 319 321 293 271 292 188 356 217 294 160 167 157 157 182 136 182 176 185 200 175 184 202 210 208 219 235 201 231 217 231 227 209 208 183 238 201 174 116 70 71 64 69 77
318 316 315 317 274 266 281 277 294 223 247 192 143 171 167 203 162 130 171 188 176 183 213 230 239 203 195 202 189 142 138 106 122 167 225 201 232 201 213 125 130 103 78 76 76
315 314 303 280 244 282 25 164 199 220 317 183 177 174 186 186 180 163 179 192 192 183 214 222 230 245 241 245 196 185 183 198 202 204 240 163 201 254 134 187 157 136 114 98 88
318 315 305 268 256 231 321 208 220 219 228 295 174 172 189 169 209 167 171 190 210 169 158 204 198 208 201 219 209 193 210 220 234 232 240 166 218 144 82 111 121 118 115 100 83
324 317 289 293 226 194 176 213 204 212 227 216 152 185 206 198 187 192 193 200 201 199 206 187 223 143 195 176 180 158 205 92 125 126 265 219 138 128 140 126 129 125 114 91 76
323 310 286 303 164 163 206 224 222 221 177 178 224 199 200 192 186 192 184 196 204 195 199 185 164 186 124 136 53 233 141 163 228 230 241 220 238 216 184 170 151 145 128 105 82
314 319 345 227 147 199 212 224 238 259 273 214 239 209 210 175 184 124 340 73 159 168 202 188 215 158 160 210 205 150 179 94 152 204 247 255 231 25 194 172 159 142 114 92 78
286 291 33 141 205 209 231 233 249 268 275 243 221 214 185 168 129 142 218 5 343 161 166 163 185 206 187 94 354 201 206 204 218 208 219 269 263 34 139 151 150 136 123 100 60
286 281 306 225 230 229 245 252 247 271 271 256 208 176 192 179 158 153 115 127 3 231 151 159 218 209 204 204 168 210 189 202 158 131 210 237 222 131 129 139 155 152 131 202 330
294 305 283 209 265 311 323 264 249 236 278 140 110 67 129 110 36 129 149 122 71 87 107 123 200 192 237 132 113 186 194 198 212 210 226 223 235 187 190 188 185 172 193 249 257
208 245 266 306 331 333 291 308 307 256 69 177 119 335 49 108 53 284 234 145 77 11 73 143 204 177 148 118 130 215 190 192 220 242 238 265 238 250 212 204 195 183 211 264 285
270 260 328 298 289 312 309 253 300 268 224 224 171 157 187 152 173 194 172 184 125 73 96 74 142 154 163 204 225 252 251 249 247 249 251 256 259 248 214 170 172 187 295 314 332
239 277 275 279 304 296 321 343 325 336 334 19 138 108 236 145 143 98 87 88 101 119 119 123 145 167 252 347 276 259 243 248 241 233 238 246 260 165 165 170 168 152 64 344 339